Weather History for Petersburg, WV

Change the Weather History Date:

Monday, May 12, 2014

  Actual Average (KEKN) Record (KEKN)
Temperature  
Mean Temperature 72 °F 57 °F  
Max Temperature 90 °F 70 °F 88 °F (1914)
Min Temperature 55 °F 44 °F 25 °F (1913)
Degree Days  
Heating Degree Days 0 8  
Month to date heating degree days 117  
Since 1 July heating degree days 5680  
Cooling Degree Days 8 0  
Month to date cooling degree days 0  
Year to date cooling degree days 3  
Growing Degree Days 22 (Base 50)    
Moisture  
Dew Point 62 °F    
Average Humidity 72    
Maximum Humidity 94    
Minimum Humidity 42    
Precipitation  
Precipitation 0.00 in 0.17 in 1.39 in (1924)
Month to date precipitation 1.90  
Year to date precipitation 15.99  
Snow  
Snow 0.00 in - - ()
Month to date snowfall  
Since 1 September snowfall  
Snow Depth -    
Sea Level Pressure  
Sea Level Pressure 30.13 in    
Wind  
Wind Speed 2 mph (WSW)    
Max Wind Speed 14 mph    
Max Gust Speed 22 mph    
Visibility 10 miles    
Events Rain , Thunderstorm    
T = Trace of Precipitation, MM = Missing Value Source: NWS Daily Summary

Daily Weather History Graph

Daily Weather History Graph

Search for Another Location

Airport:

Trip Planner

Search our weather history database for the weather conditions in past years. The results will help you decide how hot, cold, wet, or windy it might be!

Date:

Astronomy

May. 12, 2014 Rise Set
Actual Time 6:06 AM EDT 8:19 PM EDT
Civil Twilight 5:36 AM EDT 8:49 PM EDT
Nautical Twilight 5:00 AM EDT 9:26 PM EDT
Astronomical Twilight 4:20 AM EDT 10:06 PM EDT
Moon 6:16 PM EDT (5/12) 4:43 AM EDT (5/12)
Length of Visible Light 15h 12m
Length of Day
14h 13m
Waxing Gibbous, 95% of the Moon is Illuminated
May 12
Waxing Gibbous
May 14
Full
May 21
Last Quarter
May 28
New
Jun 5
First Quarter

Hourly Weather History & Observations

Time (EDT) Temp. Heat Index Dew Point Humidity Pressure Visibility Wind Dir Wind Speed Gust Speed Precip Events Conditions
12:15 AM 60.6 °F - 55.9 °F 85% 30.15 in 10.0 mi Calm Calm - N/A   Clear
12:35 AM 59.9 °F - 55.6 °F 86% 30.15 in 10.0 mi Calm Calm - N/A   Scattered Clouds
12:55 AM 60.1 °F - 55.6 °F 85% 30.15 in 10.0 mi Calm Calm - N/A   Scattered Clouds
1:15 AM 59.2 °F - 55.4 °F 87% 30.15 in 10.0 mi Calm Calm - N/A   Clear
1:35 AM 59.4 °F - 55.6 °F 87% 30.15 in 10.0 mi Calm Calm - N/A   Clear
1:55 AM 59.5 °F - 56.3 °F 89% 30.15 in 10.0 mi Calm Calm - N/A   Clear
2:15 AM 59.2 °F - 55.9 °F 89% 30.15 in 10.0 mi Calm Calm - N/A   Scattered Clouds
2:35 AM 58.1 °F - 54.9 °F 89% 30.14 in 10.0 mi Calm Calm - N/A   Scattered Clouds
2:55 AM 58.3 °F - 55.0 °F 89% 30.14 in 10.0 mi Calm Calm - N/A   Clear
3:15 AM 58.5 °F - 55.4 °F 90% 30.13 in 10.0 mi Calm Calm - N/A   Clear
3:35 AM 58.3 °F - 55.6 °F 91% 30.13 in 10.0 mi Calm Calm - N/A   Clear
3:55 AM 57.4 °F - 54.9 °F 91% 30.14 in 10.0 mi Calm Calm - N/A   Clear
4:15 AM 58.1 °F - 55.4 °F 91% 30.14 in 10.0 mi Calm Calm - N/A   Clear
4:35 AM 56.8 °F - 54.3 °F 91% 30.14 in 10.0 mi Calm Calm - N/A   Clear
4:55 AM 57.2 °F - 55.4 °F 94% 30.13 in 10.0 mi Calm Calm - N/A   Clear
5:15 AM 56.5 °F - 54.7 °F 94% 30.14 in 10.0 mi Calm Calm - N/A   Clear
5:35 AM 56.3 °F - 54.5 °F 94% 30.14 in 10.0 mi Calm Calm - N/A   Clear
5:55 AM 55.4 °F - 53.6 °F 94% 30.15 in 10.0 mi Calm Calm - N/A   Clear
6:35 AM 56.7 °F - 54.9 °F 94% 30.15 in 10.0 mi Calm Calm - N/A   Clear
6:55 AM 57.4 °F - 55.6 °F 94% 30.16 in 10.0 mi Calm Calm - N/A   Clear
7:15 AM 58.5 °F - 56.7 °F 94% 30.16 in 10.0 mi Calm Calm - N/A   Clear
7:35 AM 59.5 °F - 57.2 °F 92% 30.16 in 10.0 mi Calm Calm - N/A   Clear
7:55 AM 60.6 °F - 57.2 °F 88% 30.17 in 10.0 mi Calm Calm - N/A   Clear
8:15 AM 61.7 °F - 57.2 °F 85% 30.16 in 10.0 mi Calm Calm - N/A   Clear
8:35 AM 62.6 °F - 58.1 °F 85% 30.17 in 10.0 mi Calm Calm - N/A   Clear
8:55 AM 65.3 °F - 59.4 °F 81% 30.16 in 10.0 mi WNW 3.5 mph - N/A   Scattered Clouds
9:15 AM 68.5 °F - 59.7 °F 73% 30.16 in 10.0 mi Calm Calm - N/A   Scattered Clouds
9:35 AM 70.7 °F - 60.3 °F 69% 30.15 in 10.0 mi Calm Calm - N/A   Clear
9:55 AM 71.8 °F - 61.3 °F 70% 30.15 in 5.0 mi Calm Calm - N/A Thunderstorm Haze
10:15 AM 73.4 °F - 62.6 °F 69% 30.15 in 10.0 mi Calm Calm - N/A   Clear
10:35 AM 75.6 °F - 63.5 °F 66% 30.16 in 10.0 mi Calm Calm - N/A   Scattered Clouds
10:55 AM 77.2 °F - 66.2 °F 69% 30.16 in 10.0 mi Calm Calm - N/A   Mostly Cloudy
11:15 AM 79.3 °F - 63.5 °F 58% 30.17 in 5.0 mi WSW 11.5 mph 18.4 mph N/A Rain Rain
11:35 AM 77.0 °F - 66.6 °F 70% 30.17 in 10.0 mi SSE 5.8 mph - N/A Rain Light Rain
11:55 AM 75.2 °F - 67.1 °F 76% 30.17 in 10.0 mi SE 3.5 mph - N/A   Mostly Cloudy
12:35 PM 77.7 °F - 68.4 °F 73% 30.15 in 10.0 mi SSE 9.2 mph - N/A   Scattered Clouds
12:55 PM 79.7 °F - 67.6 °F 66% 30.14 in 10.0 mi South 11.5 mph - N/A   Clear
1:15 PM 82.2 °F 84.9 °F 67.5 °F 61% 30.13 in 10.0 mi South 10.4 mph 18.4 mph N/A   Clear
1:35 PM 84.2 °F 87.6 °F 68.4 °F 59% 30.12 in 10.0 mi South 10.4 mph - N/A   Clear
1:55 PM 86.0 °F 88.8 °F 66.9 °F 53% 30.12 in 10.0 mi SSW 6.9 mph - N/A   Clear
2:15 PM 88.5 °F 90.1 °F 64.6 °F 45% 30.11 in 10.0 mi West 13.8 mph 21.9 mph N/A   Clear
2:35 PM 89.4 °F 90.5 °F 63.9 °F 42% 30.11 in 10.0 mi WSW 9.2 mph - N/A   Scattered Clouds
2:55 PM 90.1 °F 91.6 °F 64.2 °F 42% 30.11 in 10.0 mi West 8.1 mph - N/A   Scattered Clouds
3:35 PM 89.8 °F 91.4 °F 64.6 °F 43% 30.10 in 10.0 mi West 11.5 mph - N/A   Mostly Cloudy
3:55 PM 90.5 °F 92.2 °F 64.2 °F 42% 30.09 in 10.0 mi WSW 5.8 mph - N/A   Mostly Cloudy
4:15 PM 89.1 °F 90.3 °F 64.0 °F 43% 30.09 in 10.0 mi West 8.1 mph - N/A   Scattered Clouds
4:35 PM 89.1 °F 91.0 °F 65.5 °F 45% 30.08 in 10.0 mi WSW 4.6 mph - N/A   Clear
4:55 PM 90.1 °F 91.6 °F 63.9 °F 42% 30.08 in 10.0 mi WSW 10.4 mph 16.1 mph N/A   Scattered Clouds
5:15 PM 89.8 °F 91.4 °F 64.8 °F 43% 30.08 in 10.0 mi West 8.1 mph - N/A   Mostly Cloudy
5:35 PM 88.7 °F 90.8 °F 65.5 °F 46% 30.09 in 10.0 mi West 6.9 mph - N/A   Scattered Clouds
5:55 PM 89.6 °F 92.6 °F 66.9 °F 47% 30.09 in 10.0 mi West 4.6 mph - N/A   Scattered Clouds
6:15 PM 88.9 °F 91.4 °F 66.4 °F 47% 30.09 in 10.0 mi West 8.1 mph - N/A   Scattered Clouds
6:35 PM 88.0 °F 90.0 °F 65.5 °F 47% 30.08 in 10.0 mi West 6.9 mph - N/A   Clear
6:55 PM 86.5 °F 90.3 °F 68.7 °F 55% 30.09 in 10.0 mi Calm Calm - N/A   Clear
7:15 PM 86.0 °F 87.9 °F 65.7 °F 50% 30.09 in 10.0 mi NW 3.5 mph - N/A   Scattered Clouds
7:35 PM 84.6 °F 87.1 °F 66.6 °F 55% 30.10 in 10.0 mi NW 3.5 mph - N/A   Scattered Clouds
7:55 PM 83.1 °F 86.1 °F 67.8 °F 60% 30.10 in 10.0 mi Calm Calm - N/A   Scattered Clouds
8:15 PM 81.1 °F 83.5 °F 67.1 °F 62% 30.11 in 10.0 mi Calm Calm - N/A   Clear
8:35 PM 78.8 °F - 68.0 °F 69% 30.11 in 10.0 mi NW 3.5 mph - N/A Rain Light Rain
8:55 PM 76.3 °F - 68.9 °F 78% 30.11 in 10.0 mi Calm Calm - N/A   Scattered Clouds
9:15 PM 76.3 °F - 68.7 °F 77% 30.12 in 10.0 mi Calm Calm - N/A   Scattered Clouds
9:35 PM 76.6 °F - 68.7 °F 76% 30.12 in 10.0 mi Calm Calm - N/A   Clear
9:55 PM 76.1 °F - 68.2 °F 76% 30.12 in 10.0 mi Calm Calm - N/A   Scattered Clouds
10:15 PM 74.8 °F - 68.0 °F 79% 30.13 in 10.0 mi Calm Calm - N/A   Clear
10:35 PM 71.6 °F - 67.5 °F 87% 30.13 in 10.0 mi Calm Calm - N/A   Clear
10:55 PM 73.2 °F - 67.8 °F 83% 30.14 in 10.0 mi Calm Calm - N/A   Clear
11:15 PM 72.5 °F - 67.1 °F 83% 30.14 in 10.0 mi Calm Calm - N/A   Clear
11:35 PM 70.0 °F - 66.4 °F 88% 30.14 in 10.0 mi Calm Calm - N/A   Scattered Clouds
11:55 PM 70.9 °F - 67.3 °F 88% 30.13 in 10.0 mi Calm Calm - N/A   Scattered Clouds